Simultaneous Nadir Overpasses (SNOs) Predictions

Prediction of SNOs between GOES-16 and NOAA-20 Satellite Orbit:

Table of predicted SNOs for the next 14.0 days since TLE Epoch: 11/24/2018
Index Date Time (GOES-16) GOES-16 Lat,Lon NOAA-20 Lat,Lon Distance(km) Time Diff (sec)
1 11/25/2018 18:26:12 -0.00, -75.19 -0.15, -75.72 60.73 80
2 11/26/2018 18:10:07 -0.00, -75.19 0.89, -71.19 455.87 80
3 11/28/2018 06:31:54 0.00, -75.19 0.29, -76.45 144.07 80
4 11/29/2018 06:10:30 0.00, -75.19 -0.75, -71.93 372.75 80
5 11/30/2018 18:32:25 -0.00, -75.20 -0.48, -77.22 230.80 80
6 12/01/2018 18:16:21 -0.00, -75.20 0.56, -72.69 286.66 80
7 12/03/2018 06:38:08 -0.00, -75.22 0.62, -77.95 311.66 80
8 12/04/2018 06:16:44 -0.00, -75.23 -0.42, -73.43 206.07 80
9 12/05/2018 18:38:40 0.01, -75.25 -0.74, -78.73 396.42 80
10 12/06/2018 18:22:34 0.01, -75.26 0.24, -74.19 121.66 80




NCC Satellite Simultaneous Nadir Overpasses (SNOs) Prediction Service
